EZY19DV EGGP-EGJJ

Flight info

Callsign EZY19DV
Flight time N/A
Altitude 33000
Route NANTI L8 STAFA P18 TELBA L151 KIDLI UN859 CPT Y321 PEPIS Q41 SAM N63 LELNA
Aircraft A320/M-SDE2E3FGHIJ1RWXYZ/LB1

Departure

Time N/A
Airport Liverpool John Lennon Airport (EGGP)

Arrival

Time 2026-05-03 20:55
Airport Jersey Airport (EGJJ)
Time Latitude Longitude Altitude Speed Heading
2026-05-03 20:19 52.11750 -1.72692 29675 ft 411 kts 149°
2026-05-03 20:19 52.09350 -1.70137 29978 ft 413 kts 149°
2026-05-03 20:19 52.06939 -1.67575 30222 ft 415 kts 149°
2026-05-03 20:19 52.04514 -1.64998 30461 ft 417 kts 149°
2026-05-03 20:20 52.02113 -1.62443 30693 ft 419 kts 149°
2026-05-03 20:20 51.99638 -1.59812 30934 ft 421 kts 150°
2026-05-03 20:20 51.97215 -1.57246 31210 ft 421 kts 150°
2026-05-03 20:20 51.94764 -1.54652 31531 ft 421 kts 150°
2026-05-03 20:21 51.92278 -1.52026 31848 ft 421 kts 150°
2026-05-03 20:21 51.89856 -1.49480 32153 ft 421 kts 150°
2026-05-03 20:21 51.87367 -1.46866 32470 ft 421 kts 150°
2026-05-03 20:21 51.84941 -1.44321 32769 ft 421 kts 150°
2026-05-03 20:22 51.82488 -1.41751 32899 ft 417 kts 150°
2026-05-03 20:22 51.78019 -1.37140 32885 ft 404 kts 154°
2026-05-03 20:22 51.75116 -1.35089 32887 ft 399 kts 165°
2026-05-03 20:23 51.72474 -1.33755 32887 ft 398 kts 165°
2026-05-03 20:23 51.67188 -1.31087 32919 ft 398 kts 165°
2026-05-03 20:24 51.61900 -1.28413 32922 ft 398 kts 165°
2026-05-03 20:24 51.56617 -1.25741 32914 ft 398 kts 165°
2026-05-03 20:25 51.51332 -1.23093 32877 ft 397 kts 167°
2026-05-03 20:25 51.45898 -1.22216 32877 ft 392 kts 184°
2026-05-03 20:26 51.40444 -1.22691 32882 ft 393 kts 184°
2026-05-03 20:26 51.34990 -1.23134 32880 ft 393 kts 184°
2026-05-03 20:27 51.29524 -1.23572 32898 ft 394 kts 184°
2026-05-03 20:27 51.24060 -1.24012 32900 ft 393 kts 184°
2026-05-03 20:28 51.18634 -1.24811 32902 ft 391 kts 193°
2026-05-03 20:28 51.14226 -1.26668 32897 ft 391 kts 195°
2026-05-03 20:29 51.08966 -1.28882 32896 ft 391 kts 195°
2026-05-03 20:29 51.03695 -1.31086 32905 ft 391 kts 195°
2026-05-03 20:30 50.98425 -1.33284 32915 ft 392 kts 195°
2026-05-03 20:30 50.93325 -1.36242 32908 ft 391 kts 206°
2026-05-03 20:31 50.88503 -1.40119 32905 ft 391 kts 206°
2026-05-03 20:31 50.83603 -1.44028 32910 ft 393 kts 206°
2026-05-03 20:32 50.78665 -1.47949 32570 ft 403 kts 206°
2026-05-03 20:32 50.76168 -1.49932 31949 ft 401 kts 206°
2026-05-03 20:32 50.73688 -1.51900 31416 ft 397 kts 206°
2026-05-03 20:32 50.71237 -1.53843 30913 ft 392 kts 206°
2026-05-03 20:33 50.68812 -1.55763 30436 ft 388 kts 206°
2026-05-03 20:33 50.66414 -1.57663 29942 ft 384 kts 206°
2026-05-03 20:33 50.64043 -1.59536 29379 ft 380 kts 206°
2026-05-03 20:33 50.61689 -1.61392 28769 ft 377 kts 206°
2026-05-03 20:34 50.59352 -1.63230 28184 ft 374 kts 206°
2026-05-03 20:34 50.57029 -1.65055 27548 ft 373 kts 206°
2026-05-03 20:34 50.54725 -1.66869 27087 ft 368 kts 206°
2026-05-03 20:34 50.52451 -1.68654 26634 ft 363 kts 206°
2026-05-03 20:35 50.50204 -1.70415 26188 ft 358 kts 206°
2026-05-03 20:35 50.47987 -1.72151 25733 ft 354 kts 206°
2026-05-03 20:35 50.45790 -1.73872 25288 ft 351 kts 206°
2026-05-03 20:35 50.43620 -1.75570 24827 ft 348 kts 206°
2026-05-03 20:36 50.41461 -1.77256 24366 ft 345 kts 206°
2026-05-03 20:36 50.39316 -1.78929 23903 ft 343 kts 206°
2026-05-03 20:36 50.37182 -1.80593 23425 ft 342 kts 206°
2026-05-03 20:36 50.35058 -1.82243 22920 ft 339 kts 206°
2026-05-03 20:37 50.32952 -1.83879 22467 ft 336 kts 206°
2026-05-03 20:37 50.30867 -1.85499 22027 ft 334 kts 206°
2026-05-03 20:37 50.28794 -1.87108 21583 ft 331 kts 206°
2026-05-03 20:37 50.26733 -1.88703 21145 ft 329 kts 206°
2026-05-03 20:38 50.24688 -1.90281 20715 ft 327 kts 206°
2026-05-03 20:38 50.22653 -1.91851 20290 ft 325 kts 206°
2026-05-03 20:38 50.20629 -1.93416 19869 ft 323 kts 206°
2026-05-03 20:38 50.18622 -1.94974 19450 ft 322 kts 206°
2026-05-03 20:39 50.16622 -1.96530 19031 ft 320 kts 206°
2026-05-03 20:39 50.14632 -1.98070 18604 ft 319 kts 206°
2026-05-03 20:39 50.12648 -1.99599 18209 ft 318 kts 206°
2026-05-03 20:39 50.10668 -2.01118 17770 ft 316 kts 206°
2026-05-03 20:40 50.08699 -2.02625 17360 ft 314 kts 206°
2026-05-03 20:40 50.06746 -2.04120 16967 ft 312 kts 206°
2026-05-03 20:40 50.04804 -2.05610 16580 ft 310 kts 206°
2026-05-03 20:40 50.02875 -2.07095 16193 ft 309 kts 206°
2026-05-03 20:41 50.00950 -2.08576 15810 ft 308 kts 206°
2026-05-03 20:41 49.98949 -2.09734 15429 ft 308 kts 193°
2026-05-03 20:41 49.96825 -2.10057 15050 ft 308 kts 179°
2026-05-03 20:41 49.94703 -2.09573 14666 ft 309 kts 170°
2026-05-03 20:42 49.92599 -2.08906 14288 ft 308 kts 170°
2026-05-03 20:42 49.90496 -2.08250 13917 ft 309 kts 170°
2026-05-03 20:42 49.88388 -2.07602 13510 ft 309 kts 170°
2026-05-03 20:42 49.86288 -2.06953 13122 ft 307 kts 170°
2026-05-03 20:43 49.84196 -2.06307 12736 ft 306 kts 170°
2026-05-03 20:43 49.82145 -2.05676 12356 ft 304 kts 170°
2026-05-03 20:43 49.80094 -2.05048 12169 ft 295 kts 170°
2026-05-03 20:43 49.78113 -2.04442 12072 ft 285 kts 171°
2026-05-03 20:44 49.76195 -2.03857 11957 ft 277 kts 171°
2026-05-03 20:44 49.74334 -2.03285 11838 ft 269 kts 170°
2026-05-03 20:44 49.72529 -2.02730 11714 ft 261 kts 171°
2026-05-03 20:44 49.70779 -2.02193 11605 ft 252 kts 171°
2026-05-03 20:45 49.69062 -2.01728 11348 ft 251 kts 174°
2026-05-03 20:45 49.67324 -2.01465 11021 ft 251 kts 177°
2026-05-03 20:45 49.65583 -2.01286 10698 ft 251 kts 178°
2026-05-03 20:45 49.63840 -2.01126 10378 ft 251 kts 178°
2026-05-03 20:46 49.62098 -2.00961 10060 ft 251 kts 178°
2026-05-03 20:46 49.60361 -2.00783 9737 ft 250 kts 177°
2026-05-03 20:46 49.58626 -2.00596 9399 ft 249 kts 177°
2026-05-03 20:46 49.56905 -2.00403 9081 ft 247 kts 177°
2026-05-03 20:47 49.55198 -2.00205 8769 ft 245 kts 177°
2026-05-03 20:47 49.53505 -2.00008 8460 ft 243 kts 177°
2026-05-03 20:47 49.51829 -1.99815 8154 ft 241 kts 177°
2026-05-03 20:47 49.50165 -1.99625 7844 ft 238 kts 178°
2026-05-03 20:48 49.48524 -1.99437 7553 ft 235 kts 177°
2026-05-03 20:48 49.46898 -1.99250 7256 ft 233 kts 177°
2026-05-03 20:48 49.46543 -1.99209 7191 ft 233 kts 177°
2026-05-03 20:48 49.45023 -1.99033 6912 ft 231 kts 178°
2026-05-03 20:49 49.44043 -1.98921 6729 ft 231 kts 177°
2026-05-03 20:49 49.42447 -1.98734 6439 ft 230 kts 177°
2026-05-03 20:49 49.40855 -1.98548 6139 ft 229 kts 178°
2026-05-03 20:49 49.39274 -1.98367 5843 ft 227 kts 178°
2026-05-03 20:50 49.37705 -1.98190 5556 ft 226 kts 178°
2026-05-03 20:50 49.36140 -1.98010 5276 ft 225 kts 178°
2026-05-03 20:50 49.34582 -1.97830 4989 ft 224 kts 178°
2026-05-03 20:50 49.33033 -1.97649 4748 ft 223 kts 178°
2026-05-03 20:51 49.31493 -1.97467 4463 ft 221 kts 177°
2026-05-03 20:51 49.29961 -1.97287 4193 ft 220 kts 178°
2026-05-03 20:51 49.28436 -1.97111 3912 ft 219 kts 178°
2026-05-03 20:51 49.26916 -1.96937 3636 ft 219 kts 178°
2026-05-03 20:52 49.25396 -1.97091 3186 ft 222 kts 197°
2026-05-03 20:52 49.24016 -1.98054 2925 ft 216 kts 216°
2026-05-03 20:52 49.22957 -1.99642 2728 ft 213 kts 235°
2026-05-03 20:52 49.22314 -2.01669 2480 ft 213 kts 253°
2026-05-03 20:53 49.22081 -2.03909 2210 ft 213 kts 261°
2026-05-03 20:53 49.21903 -2.06120 1925 ft 206 kts 261°
2026-05-03 20:53 49.21729 -2.08256 1672 ft 197 kts 261°
2026-05-03 20:53 49.21568 -2.10227 1411 ft 177 kts 261°
2026-05-03 20:54 49.21421 -2.12014 1167 ft 162 kts 260°
2026-05-03 20:54 49.21161 -2.15147 761 ft 139 kts 261°
2026-05-03 20:54 49.21042 -2.16575 582 ft 137 kts 263°
2026-05-03 20:55 49.20924 -2.18026 381 ft 138 kts 262°
2026-05-03 20:55 49.20808 -2.19411 286 ft 116 kts 261°
2026-05-03 20:55 49.20740 -2.20099 283 ft 14 kts 236°
2026-05-03 20:55 49.20722 -2.20110 283 ft 0 kts 182°
2026-05-03 20:56 49.20682 -2.20107 284 ft 15 kts 175°
2026-05-03 20:56 49.20569 -2.20092 284 ft 17 kts 169°
2026-05-03 20:56 49.20527 -2.19960 284 ft 15 kts 57°
2026-05-03 20:56 49.20604 -2.19892 284 ft 12 kts 75°
2026-05-03 20:57 49.20578 -2.19812 284 ft 6 kts 184°
2026-05-03 20:57 49.20560 -2.19808 284 ft 2 kts 171°
2026-05-03 20:57 49.20551 -2.19806 284 ft 0 kts 173°